Regional Weather Roundup
Issued by NWS Kansas City/Pleasant Hill, MO

Home | Current Version | Previous Version | Text Only | Print | Product List | Glossary On
Versions: 1 2 3 4 5 6 7 8 9 10 11 12 13 14 15 16 17 18 19 20 21 22 23 24 25 26 27 28
000
ASUS43 KEAX 191510
RWREAX

WEATHER ROUNDUP FOR EASTERN KANSAS AND NORTHWEST MISSOURI
NATIONAL WEATHER SERVICE KANSAS CITY/PLEASANT HILL MO
900 AM CST SUN FEB 19 2017

KSZ040-057-103>105-MOZ028-029-037-043-191600-
...KANSAS CITY METROPOLITAN AREA...

CITY           SKY/WX    TMP DP  RH WIND       PRES   REMARKS
K.C. INTL      MOSUNNY   55  52  89 S9        29.98R
K.C. DOWNTOWN  SUNNY     56  51  84 S3        29.98R
LEES SUMMIT    SUNNY     54  52  93 S10       29.99R
OLATHE - IXD   MOSUNNY   51  51 100 S9        29.99R
OLATHE - OJC   SUNNY     50  50 100 S5        29.99R FOG
LAWRENCE       MOSUNNY   50  50 100 E7        29.97R FOG

$$

MOZ001>008-011>017-020>025-030>033-038>040-044>046-053-054-191600-
...NORTHERN AND CENTRAL MISSOURI...

CITY           SKY/WX    TMP DP  RH WIND       PRES   REMARKS
ST. JOSEPH     SUNNY     52  49  89 S5        29.97S
WARRENSBURG    SUNNY     48  46  93 SE5       30.00S FOG
WHITEMAN AFB   SUNNY     52  52 100 S6        30.00R
CLINTON        SUNNY     50  50 100 CALM      30.01R
SEDALIA        SUNNY     55  50  83 S8        30.03R
WARSAW         NOT AVBL
CHILLICOTHE      N/A     51  47  86 SE3       30.01R
KIRKSVILLE     SUNNY     53  49  86 SW5       30.02R

$$

MOZ041-047>049-056>058-063>065-088>090-097-191600-
...EASTERN AND SOUTHERN MISSOURI...

CITY           SKY/WX    TMP DP  RH WIND       PRES   REMARKS
ST. LOUIS INTL NOT AVBL
SPIRIT OF STL  SUNNY     49  49 100 W7        30.06R FOG
COLUMBIA       SUNNY     53  51  93 S7        30.04R
JEFFERSON CITY SUNNY     46  45  96 SE8       30.05S
ROLLA          SUNNY     52  52 100 SE6       30.04F FOG
OSAGE BEACH    SUNNY     50  47  89 SE6       30.05S
SPRINGFIELD    SUNNY     55  51  86 SE9       30.01S
BRANSON        MOSUNNY   48  48 100 E6        30.03S
JOPLIN         MOSUNNY   56  53  90 SE6       29.99R
WEST PLAINS    FOG       49  49 100 CALM      30.07R VSB 1/4

$$

IAZ060-094-KSZ022-034>040-054-083-096-NEZ052-066-093-191600-
...KANSAS...SOUTHEAST NEBRASKA AND IOWA...

CITY           SKY/WX    TMP DP  RH WIND       PRES   REMARKS
TOPEKA         MOSUNNY   50  48  93 VRB3      29.96R FOG
MANHATTAN      CLOUDY    50  48  93 CALM      29.93R FOG
EMPORIA        CLOUDY    48  48 100 S8        29.95S FOG
CHANUTE        PTSUNNY   50  49  96 SE9       29.97S FOG
WICHITA        FOG       51  51 100 S12       29.92R VSB 1/8
OMAHA          PTSUNNY   50  43  77 S10       29.89S
LINCOLN        MOSUNNY   49  46  90 S10       29.89S
FALLS CITY     PTSUNNY   48  47  96 SE7       29.92F FOG
LAMONI         SUNNY     49  42  77 S8        29.98R
DES MOINES     MOSUNNY   48  35  60 S7        29.97R

$$





USA.gov is the U.S. government's official web portal to all federal, state and local government web resources and services.